Canton, MA

11:19 PM EST on January 19, 2017 (GMT -0500)
East Milton

Weather History for KMQE - December, 2012

Change the Weather History Date:

Tuesday, December 25, 2012

  Actual Average (KOWD) Record (KOWD)
Temperature  
Mean Temperature 30 °F -  
Max Temperature 33 °F 36 °F 66 °F (2015)
Min Temperature 25 °F 20 °F 6 °F (1998)
Degree Days  
Heating Degree Days 36    
Moisture  
Dew Point 24 °F    
Average Humidity 80    
Maximum Humidity 92    
Minimum Humidity 52    
Precipitation  
Precipitation 0.04 in - - ()
Sea Level Pressure  
Sea Level Pressure 30.08 in    
Wind  
Wind Speed 8 mph (North)    
Max Wind Speed 14 mph    
Max Gust Speed -    
Averages and records for this station are not official NWS values.
T = Trace of Precipitation, MM = Missing Value Source: NWS Daily Summary

Daily Weather History Graph

Daily Weather History Graph

Search for Another Location

Airport or City:

Trip Planner

Search our weather history database for the weather conditions in past years. The results will help you decide how hot, cold, wet, or windy it might be!

Date:

Astronomy

Dec. 25, 2012 Rise Set
Actual Time 7:11 AM EST 4:17 PM EST
Civil Twilight 6:39 AM EST 4:49 PM EST
Nautical Twilight 6:04 AM EST 5:25 PM EST
Astronomical Twilight 5:30 AM EST 5:59 PM EST
Moon 2:24 PM EST (12/25) 4:40 AM EST (12/25)
Length of Visible Light 10h 09m
Length of Day
9h 06m
Waxing Gibbous, 93% of the Moon is Illuminated
Dec 25
Waxing Gibbous
Dec 28
Full
Jan 4
Last Quarter
Jan 11
New
Jan 18
First Quarter

Hourly Weather History & Observations

Time (EST) Temp. Windchill Dew Point Humidity Pressure Visibility Wind Dir Wind Speed Gust Speed Precip Events Conditions
12:54 AM 33.1 °F 30.0 °F 17.1 °F 52% 30.02 in - East 3.5 mph - N/A   Unknown
1:54 AM 30.0 °F 25.2 °F 23.0 °F 75% 30.01 in - ESE 4.6 mph - N/A   Unknown
2:54 AM 30.0 °F 24.1 °F 26.1 °F 85% 30.01 in - East 5.8 mph - N/A   Unknown
3:54 AM 30.9 °F 24.3 °F 27.0 °F 85% 30.00 in - East 6.9 mph - N/A   Unknown
4:54 AM 32.0 °F 25.6 °F 28.0 °F 85% 29.99 in - East 6.9 mph - N/A   Unknown
5:54 AM 30.9 °F 24.3 °F 27.0 °F 85% 30.01 in - North 6.9 mph - N/A   Unknown
6:54 AM 28.9 °F 21.9 °F 26.1 °F 89% 30.01 in - North 6.9 mph - 0.01 in   Unknown
7:54 AM 28.0 °F 19.3 °F 26.1 °F 92% 30.02 in - NNW 9.2 mph - 0.01 in   Unknown
8:54 AM 27.0 °F 15.6 °F 25.0 °F 92% 30.03 in - North 13.8 mph - 0.01 in   Unknown
9:54 AM 28.0 °F 18.1 °F 26.1 °F 92% 30.05 in - North 11.5 mph - 0.01 in   Unknown
10:54 AM 30.0 °F 20.5 °F 26.1 °F 85% 30.04 in - North 11.5 mph - N/A   Unknown
11:54 AM 30.0 °F 21.1 °F 27.0 °F 88% 30.03 in - North 10.4 mph - N/A   Unknown
12:54 PM 30.0 °F 22.4 °F 27.0 °F 88% 30.03 in - NNW 8.1 mph - N/A   Unknown
1:54 PM 30.9 °F 22.8 °F 26.1 °F 82% 30.04 in - NNW 9.2 mph - N/A   Unknown
2:54 PM 30.9 °F 23.5 °F 26.1 °F 82% 30.07 in - NNW 8.1 mph - N/A   Unknown
3:54 PM 30.9 °F 22.8 °F 25.0 °F 79% 30.09 in - NNW 9.2 mph - N/A   Unknown
4:54 PM 30.9 °F 23.5 °F 25.0 °F 79% 30.11 in - NNW 8.1 mph - N/A   Unknown
5:54 PM 28.9 °F 19.8 °F 24.1 °F 82% 30.12 in - NNW 10.4 mph - N/A   Unknown
6:54 PM 28.9 °F 19.2 °F 23.0 °F 78% 30.16 in - NNW 11.5 mph - N/A   Unknown
7:54 PM 28.0 °F 18.1 °F 19.9 °F 72% 30.17 in - NNW 11.5 mph - N/A   Unknown
8:54 PM 27.0 °F 17.3 °F 19.0 °F 72% 30.19 in - NNW 10.4 mph - N/A   Unknown
9:54 PM 26.1 °F 15.6 °F 18.0 °F 71% 30.21 in - NNW 11.5 mph - N/A   Unknown
10:54 PM 26.1 °F 16.2 °F 17.1 °F 69% 30.23 in - NNW 10.4 mph - N/A   Unknown
11:54 PM 25.0 °F 13.1 °F 16.0 °F 69% 30.22 in - NNW 13.8 mph - N/A   Unknown